This demonstration page uses our WeatherBlox Daily Observations layout. Learn more.

39.92423, -83.80882

Hourly Observations for August 15, 2018

Temp ( °F °C ) Dew Point ( °F °C ) Humidity (%) Winds ( mph kmh ) Pressure ( in mb ) Visibility ( mi km ) Precip ( " mm )
12:56 am 00:56 Clear 66 18.9 66 18.9 100 100 Calm 30.02 1017 10 16.0934 0 0
1:56 am 01:56 Clear 66 18.9 65 18.3 96 96 Calm 30.02 1017 10 16.0934 0 0
2:56 am 02:56 Clear 66 18.9 65 18.3 96 96 Calm 30.01 1016 10 16.0934 0 0
3:56 am 03:56 Clear 66 18.9 65 18.3 96 96 Calm 30.01 1016 10 16.0934 0 0
4:56 am 04:56 Clear 65 18.3 65 18.3 100 100 Calm 30.02 1017 8 12.87472 0 0
5:56 am 05:56 Clear 64 17.8 64 17.8 100 100 ESE 5 7 30.03 1017 8 12.87472 0 0
6:56 am 06:56 Sunny 63 17.2 63 17.2 100 100 Calm 30.04 1017 8 12.87472 0 0
7:56 am 07:56 Sunny 65 18.3 65 18.3 100 100 ESE 3 6 30.05 1018 7 11.26538 0 0
8:56 am 08:56 Sunny 71 21.7 68 20 90 90 Calm 30.06 1018 10 16.0934 0 0
9:56 am 09:56 Sunny 76 24.4 70 21.1 82 82 SSW 5 7 30.06 1018 10 16.0934 0 0
10:56 am 10:56 Sunny 78 25.6 71 21.7 79 79 Calm 30.06 1018 10 16.0934 0 0
11:56 am 11:56 Sunny 80 26.7 71 21.7 74 74 S 5 7 30.06 1018 10 16.0934 0 0
12:56 pm 12:56 Sunny 79 26.1 71 21.7 77 77 S 6 9 30.06 1018 10 16.0934 0 0
1:56 pm 13:56 Sunny 80 26.7 71 21.7 74 74 SSW 5 7 30.05 1018 10 16.0934 0 0
2:56 pm 14:56 Mostly Cloudy 78 25.6 71 21.7 79 79 SSW 6 9 30.06 1018 10 16.0934 0 0
3:56 pm 15:56 Mostly Cloudy 80 26.7 71 21.7 74 74 SSW 6 9 30.04 1017 10 16.0934 0 0
4:26 pm 16:26 Partly Cloudy with Nearby Thunderstorms 79 26 72 22 79 79 SSW 6 9 30 1016 10 16.0934 0 0
4:46 pm 16:46 Mostly Cloudy 77 25 72 22 83 83 SSW 6 9 30.03 1017 10 16.0934 0 0
4:56 pm 16:56 Mostly Cloudy 77 25 70 21.1 79 79 W 12 19 30.04 1017 10 16.0934 0 0
5:56 pm 17:56 Cloudy with Light Rain 71 21.7 70 21.1 96 96 WSW 8 13 30.05 1018 9 14.48406 0.02 0.508
6:56 pm 18:56 Cloudy with Light Rain 70 21.1 70 21.1 100 100 undefined N/A 30.04 1017 6 9.65604 0.02 0.508
8:56 pm 20:56 Mostly Cloudy 69 20.6 69 20.6 100 100 S 6 9 30.02 1017 10 16.0934 0 0
9:56 pm 21:56 Cloudy 69 20.6 69 20.6 100 100 SSE 7 11 30.03 1017 10 16.0934 0 0
10:56 pm 22:56 Cloudy 70 21.1 69 20.6 97 97 S 6 9 30.05 1018 10 16.0934 0 0
11:56 pm 23:56 Cloudy with Rain 68 20 65 18.3 90 90 SSW 12 19 30.07 1018 10 16.0934 0.02 0.508

Powered by AerisWeather